Date String (YYYY-MM-DD hh:mm:ss) UTC,Instrument flags,Ambient pressure (hPa),Sample flow (lpm),Bypass flow (lpm),Sample temperature (°C),Ambient temperature (°C),ASC tube jacket temperature (°C),LED temperature (°C),Box temperature (°C),Sample RH (%),Span deviation,Mass concentration (μg/m³),Mass concentration (μg/m³),Mass concentration (μg/m³)
DateTimeUTC,F1_M11,P_M11,Q1_M11,Q2_M11,T1_M11,T2_M11,T3_M11,T4_M11,T5_M11,U1_M11,ZSPAN_M11,X0_M11,X2_M11,X1_M11
2023-03-01 23:00:00,,0816.2,5.00,0.00,22.6,20.9,00.0,31.4,24.2,16.2,0000.0,0004.25,0002.38,0001.79
2023-03-01 23:01:00,,0816.3,5.00,0.00,22.6,20.9,00.0,31.4,24.2,16.3,0000.0,0004.68,0002.37,0001.78
2023-03-01 23:02:00,,0816.2,5.02,0.00,22.6,20.8,00.0,31.4,24.2,16.4,0000.0,0004.85,0002.36,0001.78
2023-03-01 23:03:00,,0816.2,5.01,0.00,22.5,20.8,00.0,31.3,24.2,16.3,0000.0,0004.80,0002.38,0001.78
2023-03-01 23:04:00,,0816.3,5.01,0.00,22.5,20.8,00.0,31.3,24.1,16.3,0000.0,0004.87,0002.41,0001.79
2023-03-01 23:05:00,,0816.3,5.00,0.00,22.5,20.7,00.0,31.3,24.1,16.4,0000.0,0004.83,0002.40,0001.79
2023-03-01 23:06:00,,0816.3,5.00,0.00,22.5,20.7,00.0,31.3,24.1,16.3,0000.0,0004.80,0002.39,0001.78
2023-03-01 23:07:00,,0816.3,5.01,0.00,22.4,20.7,00.0,31.3,24.1,16.3,0000.0,0004.81,0002.43,0001.77
2023-03-01 23:08:00,,0816.3,5.00,0.00,22.4,20.6,00.0,31.3,24.0,16.3,0000.0,0005.05,0002.48,0001.76
2023-03-01 23:09:00,,0816.3,4.99,0.00,22.4,20.6,00.0,31.3,24.0,16.4,0000.0,0005.23,0002.53,0001.76
2023-03-01 23:10:00,,0816.2,5.00,0.00,22.4,20.5,00.0,31.3,24.0,16.4,0000.0,0005.62,0002.61,0001.76
2023-03-01 23:11:00,,0816.2,5.00,0.00,22.4,20.5,00.0,31.2,24.0,16.4,0000.0,0006.03,0002.61,0001.75
2023-03-01 23:12:00,,0816.3,5.00,0.00,22.4,20.4,00.0,31.2,24.0,16.4,0000.0,0007.32,0002.61,0001.75
2023-03-01 23:13:00,,0816.3,5.00,0.00,22.3,20.4,00.0,31.2,23.9,16.4,0000.0,0007.36,0002.58,0001.75
2023-03-01 23:14:00,,0816.3,5.00,0.00,22.3,20.5,00.0,31.2,24.0,16.3,0000.0,0007.41,0002.57,0001.75
2023-03-01 23:15:00,,0816.3,5.02,0.00,22.4,21.5,00.0,31.1,24.2,16.3,0000.0,0007.75,0002.53,0001.73
2023-03-01 23:16:00,,0816.4,4.99,0.00,22.5,22.7,00.0,31.2,24.4,16.1,0000.0,0008.00,0002.56,0001.73
2023-03-01 23:17:00,,0816.4,5.00,0.00,22.6,23.1,00.0,31.2,24.6,16.1,0000.0,0008.03,0002.53,0001.73
2023-03-01 23:18:00,,0816.3,4.98,0.00,22.6,22.6,00.0,31.2,24.5,16.0,0000.0,0007.98,0002.49,0001.74
2023-03-01 23:19:00,,0816.4,5.00,0.00,22.6,22.1,00.0,31.3,24.4,16.0,0000.0,0008.51,0002.45,0001.75
2023-03-01 23:20:00,,0816.4,5.00,0.00,22.6,21.8,00.0,31.3,24.3,16.0,0000.0,0008.51,0002.47,0001.77
2023-03-01 23:21:00,,0816.4,5.00,0.00,22.6,21.5,00.0,31.3,24.2,16.0,0000.0,0008.63,0002.44,0001.77
2023-03-01 23:22:00,,0816.4,5.02,0.00,22.6,21.3,00.0,31.3,24.2,16.1,0000.0,0008.99,0002.48,0001.79
2023-03-01 23:23:00,,0816.4,4.99,0.00,22.5,21.0,00.0,31.3,24.1,16.0,0000.0,0008.44,0002.54,0001.79
2023-03-01 23:24:00,,0816.4,4.97,0.00,22.5,20.9,00.0,31.3,24.1,16.0,0000.0,0008.19,0002.50,0001.80
2023-03-01 23:25:00,,0816.4,4.98,0.00,22.5,20.8,00.0,31.3,24.0,16.1,0000.0,0008.15,0002.53,0001.81
2023-03-01 23:26:00,,0816.3,4.99,0.00,22.4,20.7,00.0,31.3,24.0,16.1,0000.0,0007.97,0002.62,0001.82
2023-03-01 23:27:00,,0816.3,5.01,0.00,22.4,20.6,00.0,31.2,23.9,16.1,0000.0,0007.85,0002.66,0001.82
2023-03-01 23:28:00,,0816.3,5.01,0.00,22.4,20.6,00.0,31.2,24.0,16.1,0000.0,0007.80,0002.67,0001.82
2023-03-01 23:29:00,,0816.2,5.00,0.00,22.4,20.5,00.0,31.2,24.0,16.1,0000.0,0007.75,0002.65,0001.83
2023-03-01 23:30:00,,0816.2,5.00,0.00,22.3,20.5,00.0,31.2,23.9,16.1,0000.0,0007.25,0002.70,0001.83
2023-03-01 23:31:00,,0816.2,5.00,0.00,22.3,20.4,00.0,31.2,23.9,16.1,0000.0,0007.26,0002.70,0001.83
2023-03-01 23:32:00,,0816.2,5.01,0.00,22.3,20.4,00.0,31.2,23.9,16.1,0000.0,0007.04,0002.67,0001.84
2023-03-01 23:33:00,,0816.2,4.99,0.00,22.3,20.4,00.0,31.2,23.9,16.1,0000.0,0005.91,0002.66,0001.82
2023-03-01 23:34:00,,0816.2,5.02,0.00,22.3,20.3,00.0,31.1,23.9,16.1,0000.0,0005.19,0002.61,0001.81
2023-03-01 23:35:00,,0816.2,5.00,0.00,22.2,20.3,00.0,31.1,23.8,16.2,0000.0,0004.99,0002.61,0001.82
2023-03-01 23:36:00,,0816.2,5.00,0.00,22.2,20.3,00.0,31.1,23.8,16.2,0000.0,0004.94,0002.59,0001.82
2023-03-01 23:37:00,,0816.1,5.00,0.00,22.2,20.3,00.0,31.1,23.8,16.1,0000.0,0004.63,0002.50,0001.81
2023-03-01 23:38:00,,0816.1,5.00,0.00,22.2,20.3,00.0,31.1,23.8,16.1,0000.0,0004.34,0002.42,0001.81
2023-03-01 23:39:00,,0816.0,5.00,0.00,22.2,20.4,00.0,31.0,23.8,16.1,0000.0,0004.14,0002.37,0001.80
2023-03-01 23:40:00,,0816.0,5.01,0.00,22.2,20.4,00.0,31.0,23.8,16.2,0000.0,0004.30,0002.40,0001.80
2023-03-01 23:41:00,,0816.1,5.00,0.00,22.2,20.8,00.0,31.0,23.9,16.2,0000.0,0004.30,0002.37,0001.79
2023-03-01 23:42:00,,0816.1,4.98,0.00,22.3,22.0,00.0,31.0,24.1,16.1,0000.0,0004.11,0002.36,0001.79
2023-03-01 23:43:00,,0816.1,5.00,0.00,22.4,23.0,00.0,31.0,24.4,16.0,0000.0,0004.05,0002.38,0001.78
2023-03-01 23:44:00,,0816.1,4.99,0.00,22.5,22.9,00.0,31.1,24.4,15.9,0000.0,0004.25,0002.44,0001.78
2023-03-01 23:45:00,,0816.1,5.01,0.00,22.5,22.5,00.0,31.1,24.4,15.9,0000.0,0004.35,0002.47,0001.79
2023-03-01 23:46:00,,0816.2,5.00,0.00,22.5,22.1,00.0,31.1,24.3,15.9,0000.0,0004.56,0002.54,0001.79
2023-03-01 23:47:00,,0816.2,5.00,0.00,22.5,21.8,00.0,31.1,24.2,16.0,0000.0,0004.71,0002.61,0001.80
2023-03-01 23:48:00,,0816.2,5.00,0.00,22.5,21.5,00.0,31.2,24.2,16.0,0000.0,0005.13,0002.67,0001.82
2023-03-01 23:49:00,,0816.2,5.01,0.00,22.5,21.3,00.0,31.2,24.1,16.0,0000.0,0006.27,0002.70,0001.83
2023-03-01 23:50:00,,0816.1,5.00,0.00,22.4,21.1,00.0,31.2,24.1,16.0,0000.0,0006.90,0002.77,0001.85
2023-03-01 23:51:00,,0816.1,5.00,0.00,22.4,21.0,00.0,31.2,24.1,16.0,0000.0,0007.11,0002.86,0001.86
2023-03-01 23:52:00,,0816.1,5.02,0.00,22.4,20.8,00.0,31.2,24.0,16.0,0000.0,0006.99,0002.88,0001.87
2023-03-01 23:53:00,,0816.1,4.98,0.00,22.4,20.7,00.0,31.2,24.0,16.0,0000.0,0007.07,0002.92,0001.88
2023-03-01 23:54:00,,0816.2,5.04,0.00,22.4,20.6,00.0,31.2,23.9,16.1,0000.0,0007.06,0002.93,0001.89
2023-03-01 23:55:00,,0816.2,5.03,0.00,22.3,20.5,00.0,31.1,23.9,16.1,0000.0,0007.40,0002.92,0001.91
2023-03-01 23:56:00,,0816.3,5.00,0.00,22.3,20.5,00.0,31.1,23.9,16.1,0000.0,0008.01,0002.92,0001.92
2023-03-01 23:57:00,,0816.3,5.00,0.00,22.3,20.5,00.0,31.1,23.9,16.1,0000.0,0008.23,0002.91,0001.93
2023-03-01 23:58:00,,0816.3,4.99,0.00,22.3,20.4,00.0,31.1,23.9,16.1,0000.0,0008.55,0002.95,0001.93
2023-03-01 23:59:00,,0816.4,5.00,0.00,22.2,20.3,00.0,31.1,23.9,16.2,0000.0,0008.56,0003.00,0001.93
